Location: Newark
(34.0131°N, 4.3314°W)
Time: 08:25:02
(UTC+00:00)

Transit 2A Rocket - Pass Details

Date: 27 October 2019
Orbit: 594 x 909 km, 66.7° (Epoch: 18 November)

Event Time Altitude Azimuth Distance (km) Brightness Sun altitude
Rises 01:50:50 0° 166° (SSE) 3,278 - -57.2°
Reaches altitude 10° 01:54:06 10° 147° (SSE) 2,287 - -56.6°
Maximum altitude 01:57:23 17° 108° (ESE) 1,787 - -56.1°
Drops below altitude 10° 02:00:31 10° 68° (ENE) 2,162 - -55.5°
Sets 02:03:29 0° 48° (NE) 3,023 - -55.0°
